Location: ?ern� Novina
(50.6762°N, 14.8696°E)
Time: 02:20:38
(UTC+00:00)

H-2A R/B - Pass Details

Date: 03 March 2021
Orbit: 732 x 837 km, 98.2° (Epoch: 13 April)

Event Time Altitude Azimuth Distance (km) Brightness Sun altitude
Rises 18:01:19 0° 179° (S) 3,368 5.3 -12.8°
Reaches altitude 10° 18:03:43 10° 184° (S) 2,444 4.6 -13.2°
Maximum altitude 18:09:01 52° 261° (W) 1,037 3.1 -14.0°
Drops below altitude 10° 18:14:21 10° 337° (NNW) 2,455 5.0 -14.8°
Sets 18:16:47 0° 343° (NNW) 3,385 5.7 -15.2°
